Uncategorized

2022 Ratings – Milan Regional

Boys Adjustment: +35
Girls Adjustment: +38

PROJECTIONS

How Right/Wrong Was I? Perfect on the top 3 teams. This region, especially Division 1, was fairly straightforward, so I’m not letting this get to my head. 72/84 on Saturday thus far.

MILAN MASHERS

I will highlight one kid from each race for a little writeup. With Regionals and their survive and advance attitude, I’ll try to shout out someone who extended their season another week when they weren’t expected to, or contributed to a team that came in with a clutch performance. Of course, that leaves out many athletes who gave a great effort, and all of the athletes that were winners for toeing the line this weekend. Congrats to all.

Sparrow Centeno, Southgate Anderson: The Southgate junior has entered a whole new realm during championship season. During her sophomore year, she was largely a 22:00+ athlete, even early this year she was around that level. Come October, it’s been a steady stream of 20:00 efforts, culminating in a 19:31 state qualifier here.

Courtney Bovair, Carleton Airport: The defending regional champ, it’s been a rough go of it this time around. Injury issues plagued her throughout September and racing to recovery has had its ups and downs. Regardless, this was her best effort of the year and although it wasn’t enough to advance to MIS, it’s something she can hang her hat on to help her move forward toward track.

Brayden Humes, Milan: What a way to go out on his home course. Brayden qualified for his third consecutive State Finals. The place was a little lower than in the past, but the accomplishment all the same. His first sub-17 effort of the year was also a personal best.

Drake Steele, Allen Park: A mere mortal would’ve thrown in the towel after Holly. Last September, he was 17:54 at Springfield Oaks, but never matched that mark again in 2021. This fall, he was 18:54 on the same course under similar conditions. His season went in another direction though, throughout October, he ripped of six consecutive sub-18 efforts, then blasted a 16:47 here. Go Jags!

GradeNameTimeTeamRating
11Connell Alford14:53.0Chelsea210.7
12Michael Hegarty15:03.7Dearborn Divine Child207.1
12Carter McCalister15:07.4Monroe Jefferson205.9
12Aiden Smith15:20.9Adrian201.4
9Moises Salazar15:46.9Adrian192.7
11Braylon Petty15:47.6Adrian192.5
12Bram Hartsuff15:51.3Chelsea191.2
11Logan Ruffner15:58.5Riverview188.8
10Colin Murray15:59.3Dearborn Divine Child188.6
12Zebedee Swager16:06.7Chelsea186.1
9Jacob Stanislawski16:10.5Flat Rock184.8
12Ryan Morris16:17.8New Boston Huron182.4
12Nathan Ulcak16:19.9Dearborn Divine Child181.7
12Nick Spruce16:20.5Chelsea181.5
12Elijah Jorgensen16:20.7Dearborn Divine Child181.4
12Dylan McGrath16:22.3Dearborn Divine Child180.9
10Leo Swager16:23.9Chelsea180.4
12Ben Schefka16:25.4Adrian179.9
12Brayden Humes16:34.9Milan176.7
11Jackson Dell16:35.6Chelsea176.5
10Isaak Rubley16:39.2Dundee175.3
11Sunishthh Singh16:41.6Ann Arbor Gabriel Richard174.5
11Abdul Ghennewa16:47.9New Boston Huron172.4
12Jake Eagling16:48.8Adrian172.1
12Blake Schroeder16:51.0Monroe Jefferson171.3
11Matthew Canales16:51.3Adrian171.2
12Griffin Mentzer16:51.7New Boston Huron171.1
12Anthony Pucillo16:55.5Ann Arbor Gabriel Richard169.8
12Zachary McMahan16:57.6Dundee169.2
9Marek Borgstahl17:01.1Ann Arbor Gabriel Richard168.0
12Blake Robinson17:02.6Riverview167.5
10Landyn Soule17:10.9Adrian164.7
10Lucas Kuhn17:11.0New Boston Huron164.7
9Luke Dulecki17:12.8New Boston Huron164.1
10Nate Vargo17:17.1Flat Rock162.6
12Seth Haliburda17:20.0Carleton Airport161.7
11Luke Bounerba17:34.1Ann Arbor Gabriel Richard157.0
10Palmer Ziemer17:42.9Tecumseh154.0
11Grant Fahle17:43.0Tecumseh154.0
12Joe Westemeir17:44.3Ann Arbor Gabriel Richard153.6
12Robert Gonzalez17:46.0Trenton153.0
10Nicholas Nakic17:47.7Dearborn Divine Child152.4
11Hayden Holmes17:50.1Riverview151.6
12Brendan LaFave17:53.6Ann Arbor Gabriel Richard150.5
12James Benz17:56.6Ann Arbor Gabriel Richard149.5
11Xander Hartunian17:58.0Monroe Jefferson149.0
10Brendan VanBelle17:59.0Garden City148.7
11Nolan West17:59.7Monroe Jefferson148.4
11Brenden Kapala18:01.5Grosse Ile147.8
11Connor Rayha18:05.0Dearborn Divine Child146.7
12Luke VanAssche18:05.4Summit Academy North146.5
10Owen Strieter-Byron18:06.2Tecumseh146.3
11Ben Merkel18:10.1Monroe Jefferson145.0
12Samuel Stanley18:10.8New Boston Huron144.7
10Joel Bezeau18:11.1Monroe Jefferson144.6
11William Steinhour18:12.4Monroe Jefferson144.2
9Matthew Carbajo18:13.5Grosse Ile143.8
10Jack Fox18:20.0Grosse Ile141.7
10Max Marten18:20.7Tecumseh141.4
12Noah Nieman18:23.4Dundee140.5
11Ian Kramp18:26.1Trenton139.6
11Gabriel Natvidid18:26.9Trenton139.4
10Owen Hassett18:27.9Trenton139.0
9Karl Swager18:30.4Chelsea138.2
10Kyle Biller18:34.8New Boston Huron136.7
9Kenny Wingate18:42.3Carleton Airport134.2
12Andrew Rowe18:43.8Tecumseh133.7
12Nicholas Griffin18:45.6Grosse Ile133.1
10Wesley Murphy18:45.9Milan133.0
12Johnathan Mcintyre18:47.8Garden City132.4
11Parker Prior18:50.8Milan131.4
11Marshall Peacock18:53.0Tecumseh130.7
12Aidan Broadworth18:55.8Milan129.7
11Wyatt Kessell18:56.9Carleton Airport129.4
12Nelson Haydamacker19:08.7Flat Rock125.4
12Jeric Asencio19:11.0Garden City124.7
12Keith Halley19:16.7Flat Rock122.8
12Ben Shaw19:20.5Riverview121.5
10Jaime Saucedo19:26.8Melvindale119.4
10Adam Brodie19:37.6Flat Rock115.8
12Gabriel Salenbien19:42.4Dundee114.2
10Matthew Hall19:50.4Dearborn Henry Ford Academy111.5
11Brennan Graham19:51.2Dundee111.3
12Chris Wainwright19:51.3Garden City111.2
9William Dobbertin19:58.2Carleton Airport108.9
10Sam Vesperman20:02.0Grosse Ile107.7
9Maximus Walker20:05.4Tecumseh106.5
12Zachary Fenbert20:06.4Dundee106.2
10Ray Garcia20:14.4Melvindale103.5
12Ashton Rakebrand20:20.7Dundee101.4
10Tyler Vaughn20:27.0Carleton Airport99.4
12Jaylen Vecheta20:34.2Summit Academy North96.9
11Nathan Swartzbaugh21:11.4Dearborn Henry Ford Academy84.5
9Jordan Brewer21:16.6Carleton Airport82.8
12Davis Leigh21:20.9Carleton Airport81.4
10Jonah Beauchamp21:21.7Riverview81.1
10Eymen Mohammed21:27.5Melvindale79.2
10Dylan Cassel21:29.5Riverview78.5
11Warren Pietryka21:29.7Milan78.4
10Abrahim Mohamed21:45.2Melvindale73.3
10Jordan Roberts21:48.0Garden City72.3
12Timothy Hunter21:49.9Dearborn Henry Ford Academy71.7
12Ryan Bates21:58.1Trenton69.0
11Arnav Verma22:01.5Grosse Ile67.8
10Charlie Gerometta22:08.9Trenton65.4
12Preston Froehlch22:17.0Milan62.7
12Gavin Morales22:19.3Garden City61.9
10Kyle Parks22:23.0Garden City60.7
9Calvin Haydamacker23:00.2Flat Rock48.3
11Christian Franco23:03.1Melvindale47.3
10Brendan Wroblewski23:30.1Grosse Ile38.3
12Zach Heikka23:37.2Milan35.9
9Rodolfo Gaona24:03.5Dearborn Heights Annapolis27.2
10Jonathon Quam24:24.8Dearborn Henry Ford Academy20.1
10Koby Geter24:44.8Dearborn Heights Annapolis13.4
12Samuel Jackson15:29.4Saline198.5
12Luke Butler16:00.5Monroe188.2
11Truman Johnson16:03.5Saline187.2
12Jason Whitton16:03.6Saline187.1
12Michael Makuch16:04.2Wyandotte Roosevelt186.9
11Vincent Peterson Sand16:11.3Ann Arbor Pioneer184.6
11Eric Overdier16:22.5Ann Arbor Pioneer180.8
12Andrew McNally16:25.1Saline180.0
12Roman Cortina16:25.8Ann Arbor Pioneer179.7
12Thomas Kerber16:26.4Ann Arbor Pioneer179.5
12Landon Wissink16:30.6Saline178.1
12Elijah Routson16:33.8Saline177.1
11Caleb Wynn16:34.6Allen Park176.8
12Shane Pitcher16:37.6Saline175.8
9Pierce Scheffler16:39.4Woodhaven-Brownstown175.2
12Andrew Grier16:41.5Ann Arbor Pioneer174.5
12Chase Klapthor16:41.9Ann Arbor Pioneer174.4
12Kyle Hoffner16:44.3Monroe173.6
12Drake Steele16:47.6Allen Park172.5
9Beckett Crooks16:53.2Ann Arbor Pioneer170.6
11Maxx Adams16:56.6Monroe169.5
10Brady Boroniec17:03.1Allen Park167.3
11Gabe Bock17:08.5Temperance Bedford165.5
11Caden Ehgotz17:12.9Belleville164.0
11Matthew Mizzi17:13.2Allen Park163.9
10Nicholas Balla17:14.5Temperance Bedford163.5
10Myles Bray17:14.6Monroe163.5
11Caleb DeLaGarza17:15.8Allen Park163.1
9Dane Hieronimus17:22.0Temperance Bedford161.0
10Nathan Lawe17:27.5Gibraltar Carlson159.2
11Quinn Burgei17:28.3Gibraltar Carlson158.9
10Braxon Lake17:29.5Temperance Bedford158.5
12Daniel Rhoades17:36.4Monroe156.2
10Jacob Yeager17:39.7Temperance Bedford155.1
11Ethan Johnson17:41.4Wyandotte Roosevelt154.5
9Alex Vazquez17:44.0Woodhaven-Brownstown153.7
12Drake Clemons17:51.4Belleville151.2
12Joshua Gagne17:51.9Temperance Bedford151.0
10Aidan Ortiz17:56.8Temperance Bedford149.4
10Jeremiah Lawson18:04.3Woodhaven-Brownstown146.9
12Angel Aleman-Contreras18:09.2Belleville145.3
11Easton Mendenhall18:10.7Wyandotte Roosevelt144.8
9Isaiah Clark18:25.6Allen Park139.8
11Blake Roberts18:26.5Wyandotte Roosevelt139.5
12Nicolas Salas18:27.5Allen Park139.2
12Zack Sykes18:27.5Belleville139.2
10Dominic Germano18:35.0Woodhaven-Brownstown136.7
12William Widby18:35.1Woodhaven-Brownstown136.6
12Cody Sykes18:35.6Belleville136.5
10Blake Fowler18:36.9Gibraltar Carlson136.0
10Reed Trela18:39.4Woodhaven-Brownstown135.2
10Nate Pehote18:41.8Gibraltar Carlson134.4
11Chris Stein18:47.6Monroe132.5
11Marcus Hawthorne18:50.9Wyandotte Roosevelt131.4
12Jason Sax18:53.6Woodhaven-Brownstown130.5
11Cameron Sindlinger18:55.6Ypsilanti Lincoln129.8
11Grayson Albers18:58.9Ypsilanti Lincoln128.7
10Matthew Caudill19:02.6Wyandotte Roosevelt127.5
12Nathan Ehnis19:06.6Belleville126.1
11Gunnar Rochon19:15.2Belleville123.3
11Andrew Foshag19:40.0Monroe115.0
10Austin Saavedra19:42.5Gibraltar Carlson114.2
10Chase Yakowich19:47.3Gibraltar Carlson112.6
12Samuel Bovee19:51.8Wyandotte Roosevelt111.1
10Pavel Ortega20:12.9Lincoln Park104.0
12Aiden Ferguson20:29.1Gibraltar Carlson98.6
10Donovan Effinger21:00.7Lincoln Park88.1
12Fred Kelly21:52.0Lincoln Park71.0
10Armen MacMillian22:35.7Lincoln Park56.4
10Cartier Wade-Richardson23:29.8Lincoln Park38.4
9Wyatt Nicol24:53.8Lincoln Park10.4


GradeNameTimeTeamRating
12Emily Cooper17:49.8Ann Arbor Pioneer150.7
12Mia Rogan18:12.2Saline143.3
11Natalie Mello18:15.7Ann Arbor Pioneer142.1
12Samantha Cost18:26.3Wyandotte Roosevelt138.6
11Jenna Pilachowski18:26.7Monroe Jefferson138.4
11Laney Alig18:28.8Saline137.7
11Payton Scheffler18:33.3Woodhaven-Brownstown136.2
10Abby Roth18:34.4Saline135.9
10Corynn Gady18:37.6Saline134.8
11Rachel Forsyth18:39.4Ann Arbor Pioneer134.2
12Rebekah Asselin18:53.9Temperance Bedford129.4
10Sienna Snyder18:56.3Saline128.6
12Kaylee Pesta18:59.6Tecumseh127.5
10Sophy Skeels19:03.4Adrian126.2
11Viktoria Bloniarz19:08.1Monroe124.6
11Anastee Davis19:15.6Adrian122.1
10Grace Roth19:16.1Saline122.0
10Marisa Chuey19:16.5Trenton121.8
11Yoselin Fermin-Campos19:20.1Adrian120.6
11Sylvia Sanok Dufallo19:25.3Ann Arbor Pioneer118.9
12Gianna-Marie Schubert19:26.2Ann Arbor Gabriel Richard118.6
10Kathryn Kurtinaitis19:28.6Dearborn Divine Child117.8
10Natalia DeMea19:28.7Chelsea117.8
11Sparrow Centeno19:31.6Southgate Anderson116.8
11Riley Peer19:32.4Monroe Jefferson116.5
10Molly Johnston19:37.3New Boston Huron114.9
10Kim Miller19:40.4Monroe Jefferson113.9
10Madison Morris19:42.5Tecumseh113.2
9Avery Turk19:43.1New Boston Huron113.0
11Katie Hume19:43.5Ann Arbor Pioneer112.8
10Mackenzie Sellenraad19:47.7Saline111.4
10Megan Woelkers19:48.5Flat Rock111.2
12Veronica Fitzgerald19:53.1Monroe Jefferson109.6
12Mya Orner19:56.4Temperance Bedford108.5
9Sam Bieber19:58.0Chelsea108.0
10Devyn Dorey20:00.5Trenton107.2
9Anna Kujansuu20:01.6Dearborn Divine Child106.8
10Courtney Bovair20:10.8Carleton Airport103.7
12Luci Granata20:12.0Allen Park103.4
12Morgan Kay20:19.2Monroe100.9
11Trilian Krug20:19.2Chelsea100.9
9Mavee Clark20:21.1Adrian100.3
11Erin Stuk20:22.4Ann Arbor Gabriel Richard99.9
9Hana Boggess20:23.8Ann Arbor Pioneer99.4
9Eleanor Grant20:25.8Wyandotte Roosevelt98.7
12Katie Fischer20:26.9Adrian98.4
11Claire Bireta20:29.3Allen Park97.6
10Lauren Thompson20:31.5Chelsea96.8
12Ella Slade20:32.4Dearborn Divine Child96.5
10Kayla Slade20:32.9Dearborn Divine Child96.4
9Alyssa Korte20:33.6Grosse Ile96.1
12Isabelle Barone20:36.0Dearborn Divine Child95.3
11Seren Angus20:36.4Chelsea95.2
10Jessica Warren20:37.1Tecumseh95.0
12Madison Duvall20:39.0Monroe Jefferson94.3
10Kaylee Hovey20:41.0Dundee93.7
12Emma Abbott20:47.4Tecumseh91.5
12Emma Bushroe20:48.9Temperance Bedford91.0
12Emily Stevenson20:50.7Tecumseh90.5
12Julia Kause20:52.4Chelsea89.9
12Elise Bodary20:52.5Ann Arbor Gabriel Richard89.8
11Keira Wood20:53.4Riverview89.5
12Bridget Waterstradt20:54.6Dundee89.1
10Anahi Chapa20:56.9Allen Park88.4
12Lena Hales20:57.2Southgate Anderson88.3
10Raelyn McLaughlin21:00.0Woodhaven-Brownstown87.4
9Joslyn Bechtol21:00.6Woodhaven-Brownstown87.1
9Chloe Wanner21:02.6Temperance Bedford86.5
9Elliana Perugi21:03.8Woodhaven-Brownstown86.1
9Anna Coury21:04.4Monroe85.9
11Daniela Hinojos21:06.4Riverview85.2
11Lauren Moreno21:08.1Wyandotte Roosevelt84.6
11Izabella Loubser21:08.8Temperance Bedford84.4
12Chesney Wilke21:12.4Tecumseh83.2
10Paris Williams21:15.9Detroit Cass Tech82.0
9Corinna Aulph21:18.6Monroe81.1
9Aubrey Miscikowski21:20.7Temperance Bedford80.4
9Alicia Shelton21:23.1Grosse Ile79.6
9Avery Faut21:23.9Ann Arbor Gabriel Richard79.4
11Michelle Roque21:25.5Grosse Ile78.8
10Jillian Wygonik21:26.4Dearborn Divine Child78.5
9Claire Cousineau21:27.3Tecumseh78.3
11Maggie Warden21:28.1New Boston Huron78.0
12Brooke Matusik21:28.9Chelsea77.7
11Kirsten Koss21:30.4Dearborn Divine Child77.2
10Mercedes Dziendziel21:32.6Wyandotte Roosevelt76.5
11Ella Caplea21:36.2Ann Arbor Gabriel Richard75.3
12Grace Finley21:40.4Monroe73.9
11Abbie Sawicki21:40.8Allen Park73.7
9Kaily McDaniel21:41.8Milan73.4
11Adalya Ghnaim21:45.9Woodhaven-Brownstown72.0
12Lucy Cousino21:46.2Ann Arbor Gabriel Richard71.9
9Amerie Wilson21:51.7Milan70.1
11Clarie Baker21:52.3Milan69.9
11Madeleine Fleury21:55.5Ann Arbor Gabriel Richard68.8
11Alyssa Masserant21:55.5Monroe Jefferson68.8
10Isabella Morris22:10.1Adrian64.0
9Loreli Harris22:13.9Wyandotte Roosevelt62.7
12Breeann Roupe22:16.6New Boston Huron61.8
9Alaina Nagel22:24.7Allen Park59.1
12Grace Norton22:25.4Gibraltar Carlson58.9
11Ally Pitcher22:25.8Monroe58.7
10Reese Oberski22:29.6Temperance Bedford57.5
12Alexa Glancy22:31.8Monroe Jefferson56.7
10Sydney Mason22:35.9Carleton Airport55.4
12Ella Racette22:39.4Milan54.2
10Emily Sell22:43.7Carleton Airport52.8
10Taylor Karasinski22:44.5Grosse Ile52.5
11Mariah Torres22:49.9Lincoln Park50.7
11Natalie Swisher22:53.8Dundee49.4
11Stevie Pizzo22:55.7Wyandotte Roosevelt48.8
10Alexandra Butler22:56.8Monroe48.4
9Falyn Doss22:59.3New Boston Huron47.6
10Ziomarea Lewis23:03.4Detroit Cass Tech46.2
10Madison Ross23:05.9Milan45.4
10Giselle Collazo23:06.3Garden City45.2
10Brooklyn Kemokai23:08.9Gibraltar Carlson44.4
9Ashley Farnsworth23:10.6Gibraltar Carlson43.8
9Zaya Troeger23:11.3Grosse Ile43.6
11Arianna Pate23:17.8Gibraltar Carlson41.4
11Nevaeh Harris23:23.0Allen Park39.7
10Isabelle Kriebel23:24.3Woodhaven-Brownstown39.2
11Allisyn Pagel23:25.1Adrian39.0
11Brianna Cousino23:32.3Dundee36.6
10Kamari Robinson23:38.8Detroit Cass Tech34.4
12Mya Ross23:39.5Milan34.2
12Kylie Iwasko23:39.6Gibraltar Carlson34.1
12Rachel Taylor23:43.5Milan32.8
9Kirsten Perecki23:48.2New Boston Huron31.3
10Rylie Sulewski24:06.1Gibraltar Carlson25.3
11Sophia Crom24:13.1Dundee23.0
9Elizabeth Harrison24:16.9Lincoln Park21.7
10Abby Caudill24:19.4Wyandotte Roosevelt20.9
12Lily Valentine24:22.6Dundee19.8
11Anaiia Simmons24:28.7Summit Academy North17.8
11Danica Swetz24:30.5Gibraltar Carlson17.2
10Zoey Webb24:38.3Carleton Airport14.6
10Ava Richards24:42.1Dundee13.3
12Angela Witkowski24:53.9Melvindale9.4
12Anysia Correa24:56.8Southgate Anderson8.4
9Madison Kemp25:02.6Carleton Airport6.5

Leave a Reply

Fill in your details below or click an icon to log in:

WordPress.com Logo

You are commenting using your WordPress.com account. Log Out /  Change )

Twitter picture

You are commenting using your Twitter account. Log Out /  Change )

Facebook photo

You are commenting using your Facebook account. Log Out /  Change )

Connecting to %s